{"data":{"norad_id":54834,"epoch":"2026-05-25T03:48:49.514688Z","epoch_age_seconds":60531,"freshness":"FRESH","line1":"1 54834U 22177Q   26145.15890642  .00000523  00000+0  28536-4 0  9993","line2":"2 54834  43.0066  64.5999 0001470 267.9707  92.0976 15.27576795188629","mean_motion":15.27576795,"eccentricity":0.000147,"inclination_deg":43.0066,"raan_deg":64.5999,"arg_perigee_deg":267.9707,"mean_anomaly_deg":92.0976,"bstar":2.8536e-5,"rev_number":18862,"period_min":94.26694649417,"perigee_km":482.05009721256,"apogee_km":484.06728874629,"semimajor_km":6861.1956929794,"source":"CELESTRAK","updated_at":"2026-05-25T13:38:17.722296Z"}}